カタログに戻る

FENGYUN 1C DEB

LostPO
NORAD 47026·DEBRIS·🇨🇳 China

打ち上げ May 10, 1999 から Taiyuan Satellite Launch Center

Loading…

次のパス (今後24時間)

TLE

古いSource: Space-Track

元期: Jul 15, 2024, 23:40 UTC

1 47026U 99025FBC 24197.98627178  .00005019  00000-0  29627-2 0  9998
2 47026  98.1791 269.3406 0078241 131.7472 229.0423 14.06656095698178

AllMySatでFENGYUN 1C DEBをリアルタイム追跡

Download on the App Store